GFA220 OKKK-OBBI

Flight info

Callsign GFA220
Flight time 0h 47m
Altitude 27000
Route BOXIK B416 IMDOX P975 LONOS L703 KOBOK
Aircraft A320/M-SDE3FGHIRWY/LB1

Departure

Time 2026-05-04 15:59
Airport Kuwait International Airport (OKKK)

Arrival

Time 2026-05-04 16:46
Airport Bahrain International Airport (OBBI)
Time Latitude Longitude Altitude Speed Heading
2026-05-04 15:27 29.23869 47.97255 158 ft 0 kts 269°
2026-05-04 15:50 29.23869 47.97268 158 ft 2 kts 268°
2026-05-04 15:50 29.23869 47.97287 158 ft 2 kts 266°
2026-05-04 15:50 29.23871 47.97305 159 ft 2 kts 264°
2026-05-04 15:51 29.23872 47.97324 159 ft 2 kts 256°
2026-05-04 15:51 29.23878 47.97342 159 ft 2 kts 232°
2026-05-04 15:51 29.23889 47.97355 160 ft 2 kts 206°
2026-05-04 15:51 29.23902 47.97361 160 ft 1 kts 181°
2026-05-04 15:52 29.23906 47.97362 160 ft 0 kts 175°
2026-05-04 15:53 29.23872 47.97369 160 ft 10 kts 164°
2026-05-04 15:53 29.23805 47.97404 160 ft 11 kts 153°
2026-05-04 15:54 29.23729 47.97446 161 ft 13 kts 154°
2026-05-04 15:54 29.23650 47.97429 161 ft 13 kts 237°
2026-05-04 15:54 29.23615 47.97336 159 ft 11 kts 247°
2026-05-04 15:54 29.23588 47.97265 158 ft 11 kts 246°
2026-05-04 15:55 29.23542 47.97152 156 ft 20 kts 245°
2026-05-04 15:55 29.23475 47.96994 154 ft 23 kts 246°
2026-05-04 15:55 29.23434 47.96886 154 ft 19 kts 244°
2026-05-04 15:55 29.23419 47.96739 156 ft 12 kts 319°
2026-05-04 15:56 29.23516 47.96683 155 ft 19 kts 334°
2026-05-04 15:56 29.23608 47.96634 154 ft 24 kts 336°
2026-05-04 15:56 29.23772 47.96545 152 ft 27 kts 334°
2026-05-04 15:56 29.23949 47.96452 149 ft 29 kts 332°
2026-05-04 15:57 29.24071 47.96384 148 ft 3 kts 335°
2026-05-04 15:57 29.24091 47.96364 148 ft 12 kts 304°
2026-05-04 15:57 29.24078 47.96292 153 ft 6 kts 245°
2026-05-04 15:57 29.24044 47.96209 165 ft 17 kts 242°
2026-05-04 15:58 29.23976 47.96195 165 ft 12 kts 151°
2026-05-04 15:58 29.23810 47.96284 167 ft 57 kts 155°
2026-05-04 15:58 29.23244 47.96585 177 ft 119 kts 155°
2026-05-04 15:58 29.22330 47.97071 213 ft 164 kts 153°
2026-05-04 15:59 29.21301 47.97614 831 ft 163 kts 153°
2026-05-04 15:59 29.20333 47.98288 1413 ft 166 kts 126°
2026-05-04 15:59 29.19826 47.99497 1937 ft 172 kts 111°
2026-05-04 15:59 29.19308 48.00803 2195 ft 191 kts 116°
2026-05-04 16:00 29.18682 48.02214 2385 ft 212 kts 116°
2026-05-04 16:00 29.17978 48.03762 2645 ft 231 kts 117°
2026-05-04 16:00 29.17203 48.05465 2982 ft 253 kts 117°
2026-05-04 16:00 29.16372 48.07299 3540 ft 264 kts 117°
2026-05-04 16:01 29.15524 48.09200 3895 ft 270 kts 114°
2026-05-04 16:01 29.15087 48.11243 3984 ft 271 kts 92°
2026-05-04 16:01 29.15076 48.13408 4001 ft 272 kts 90°
2026-05-04 16:01 29.15083 48.15573 4005 ft 272 kts 90°
2026-05-04 16:02 29.15093 48.17729 4004 ft 271 kts 90°
2026-05-04 16:02 29.15103 48.19909 4230 ft 278 kts 90°
2026-05-04 16:02 29.15111 48.24348 5725 ft 285 kts 89°
2026-05-04 16:03 29.15112 48.26631 6433 ft 290 kts 90°
2026-05-04 16:03 29.15113 48.28952 7131 ft 295 kts 90°
2026-05-04 16:03 29.15107 48.31321 7748 ft 301 kts 93°
2026-05-04 16:03 29.14719 48.33672 7952 ft 302 kts 111°
2026-05-04 16:04 29.13693 48.35806 8486 ft 303 kts 130°
2026-05-04 16:04 29.10900 48.39471 9958 ft 310 kts 134°
2026-05-04 16:04 29.09446 48.41376 10316 ft 329 kts 134°
2026-05-04 16:05 29.07890 48.43411 10496 ft 351 kts 134°
2026-05-04 16:05 29.06250 48.45562 10922 ft 363 kts 134°
2026-05-04 16:05 29.02908 48.49955 12191 ft 372 kts 134°
2026-05-04 16:06 29.01200 48.52194 12850 ft 377 kts 135°
2026-05-04 16:06 28.96538 48.58277 14477 ft 388 kts 135°
2026-05-04 16:07 28.94142 48.61396 15254 ft 393 kts 135°
2026-05-04 16:07 28.88650 48.68535 16968 ft 405 kts 134°
2026-05-04 16:08 28.86786 48.70956 17543 ft 408 kts 134°
2026-05-04 16:08 28.81139 48.78312 19126 ft 418 kts 131°
2026-05-04 16:09 28.78067 48.83990 20186 ft 426 kts 121°
2026-05-04 16:09 28.75173 48.89918 21266 ft 430 kts 122°
2026-05-04 16:10 28.72235 48.95910 22298 ft 436 kts 122°
2026-05-04 16:11 28.67774 49.04969 23649 ft 444 kts 123°
2026-05-04 16:11 28.66236 49.08087 24028 ft 447 kts 123°
2026-05-04 16:12 28.61638 49.17404 25068 ft 457 kts 123°
2026-05-04 16:12 28.55573 49.25586 26041 ft 451 kts 149°
2026-05-04 16:13 28.50216 49.29251 26675 ft 456 kts 149°
2026-05-04 16:13 28.45399 49.33954 26786 ft 451 kts 143°
2026-05-04 16:14 28.40721 49.38660 26781 ft 449 kts 144°
2026-05-04 16:14 28.36021 49.43324 26792 ft 449 kts 144°
2026-05-04 16:15 28.28949 49.50315 26791 ft 449 kts 144°
2026-05-04 16:16 28.24228 49.54970 26787 ft 450 kts 144°
2026-05-04 16:16 28.16998 49.61710 26788 ft 447 kts 148°
2026-05-04 16:17 28.11993 49.65890 26781 ft 447 kts 149°
2026-05-04 16:18 28.04490 49.72194 26779 ft 448 kts 149°
2026-05-04 16:18 28.01979 49.74261 26780 ft 447 kts 150°
2026-05-04 16:19 27.94252 49.80237 26777 ft 446 kts 152°
2026-05-04 16:19 27.89105 49.84163 26754 ft 445 kts 151°
2026-05-04 16:20 27.81548 49.90028 25883 ft 437 kts 150°
2026-05-04 16:20 27.76570 49.93891 25323 ft 433 kts 150°
2026-05-04 16:21 27.69184 49.99605 24492 ft 426 kts 150°
2026-05-04 16:22 27.64306 50.03367 23937 ft 422 kts 150°
2026-05-04 16:22 27.57075 50.08930 23071 ft 418 kts 149°
2026-05-04 16:23 27.49960 50.14412 21673 ft 409 kts 149°
2026-05-04 16:24 27.40728 50.21599 19910 ft 398 kts 147°
2026-05-04 16:25 27.36268 50.25249 19069 ft 394 kts 147°
2026-05-04 16:26 27.27485 50.32410 17352 ft 384 kts 146°
2026-05-04 16:26 27.21035 50.37616 16004 ft 377 kts 146°
2026-05-04 16:27 27.16789 50.41042 15139 ft 373 kts 145°
2026-05-04 16:28 27.11290 50.45474 14082 ft 349 kts 144°
2026-05-04 16:28 27.05581 50.50072 13058 ft 329 kts 144°
2026-05-04 16:29 26.97990 50.55583 12000 ft 323 kts 161°
2026-05-04 16:30 26.91450 50.56646 12018 ft 321 kts 180°
2026-05-04 16:31 26.87082 50.57553 11719 ft 324 kts 157°
2026-05-04 16:31 26.80970 50.60719 11010 ft 322 kts 156°
2026-05-04 16:32 26.74917 50.63871 10166 ft 319 kts 157°
2026-05-04 16:33 26.70904 50.65944 9442 ft 317 kts 157°
2026-05-04 16:33 26.66930 50.67997 8687 ft 314 kts 156°
2026-05-04 16:34 26.62998 50.70023 8039 ft 310 kts 156°
2026-05-04 16:34 26.61052 50.71030 8008 ft 311 kts 156°
2026-05-04 16:35 26.55207 50.74047 7497 ft 308 kts 156°
2026-05-04 16:35 26.49419 50.77019 6440 ft 304 kts 156°
2026-05-04 16:36 26.47477 50.78018 6049 ft 303 kts 155°
2026-05-04 16:36 26.43739 50.79936 5481 ft 284 kts 155°
2026-05-04 16:37 26.40228 50.81740 4764 ft 276 kts 154°
2026-05-04 16:37 26.38494 50.82630 4521 ft 268 kts 154°
2026-05-04 16:37 26.35238 50.84300 4028 ft 253 kts 154°
2026-05-04 16:38 26.32076 50.85921 3447 ft 249 kts 154°
2026-05-04 16:39 26.27483 50.88275 2864 ft 229 kts 153°
2026-05-04 16:39 26.24517 50.89181 2389 ft 223 kts 194°
2026-05-04 16:40 26.21758 50.87721 2002 ft 221 kts 212°
2026-05-04 16:40 26.19161 50.85888 2003 ft 219 kts 229°
2026-05-04 16:41 26.18268 50.82886 2010 ft 207 kts 271°
2026-05-04 16:41 26.18508 50.78219 2006 ft 196 kts 302°
2026-05-04 16:42 26.20585 50.74602 1914 ft 168 kts 308°
2026-05-04 16:43 26.21788 50.72521 1552 ft 147 kts 309°
2026-05-04 16:43 26.22852 50.70685 1199 ft 138 kts 308°
2026-05-04 16:43 26.23371 50.69790 1024 ft 137 kts 307°
2026-05-04 16:44 26.25429 50.66233 325 ft 134 kts 303°
2026-05-04 16:45 26.26421 50.64503 15 ft 124 kts 303°
2026-05-04 16:46 26.27222 50.63094 17 ft 31 kts 297°
2026-05-04 16:46 26.27229 50.62842 18 ft 8 kts 220°
2026-05-04 16:47 26.27239 50.62759 18 ft 6 kts 301°
2026-05-04 16:47 26.27252 50.62672 17 ft 13 kts 238°
2026-05-04 16:48 26.27109 50.62553 17 ft 2 kts 211°
2026-05-04 16:48 26.27099 50.62547 17 ft 0 kts 211°